Content
SEND FEEDBACK

Daily
Averages
Monthly
Summary
United States of America

TAFT, CALIFORNIA


Home > North America > United States > California
Elevation: 659 feet     Latitude: 35 05N     Longitude: 119 23W

WEATHER
 
SELECT A DAY
Number of Records: 182,040;   Date Range: 1/1/95 - 9/18/14
 
SHARE

PRINT THIS DATA

[ ← Previous Day ]
WEATHER ALMANAC - JANUARY 23, 2013
[ Next Day → ]
[ °C ]   °F
Weather ElementAverageHighLow
Temperature54.5 °F64.4 °F (12:54 pm)44.6 °F (3:54 am)
Dewpoint39.4 °F44.1 °F (10:54 pm)34 °F (1:54 am)
Humidity57.3 %71 % (3:54 am)40 % (12:54 pm)
Barometer30.03 in30.07 in (10:54 am)29.99 in (3:54 pm)
Wind Speed2.7 mph8.1 mph (3:54 pm)
Weather ElementAverage
Visibility4.8 mi
Wind DirectionESE (101.5 °)

Weather ElementTotal
Precipitation0.01 in
Heating Degree Days10.5 (Base 65)
Growing Degree Days4.5 (Base 50)
Averaged from 26 records on January 23, 2013
WEATHER CONDITIONS BREAKOUT
WIND DIRECTION BREAKOUT
WEATHER BY HOUR - JANUARY 23, 2013
[ °C ]   °F
Local TimeTemperatureDewpointHumidityBarometerVisibilityWind DirectionWind SpeedGust SpeedPrecipitationEventsConditions
1:54 AM46.9 °F34.0 °F61 %30.04 in6.0 miCalmHaze
2:54 AM46.0 °F35.1 °F66 %30.04 in5.0 miCalmHaze
3:54 AM44.6 °F35.6 °F71 %30.02 in5.0 miCalmHaze
4:54 AM46.0 °F35.1 °F66 %30.02 in5.0 miNorth (360°)3.5 mphHaze
5:54 AM48.9 °F35.1 °F59 %30.01 in6.0 miSE (130°)3.5 mphHaze
6:54 AM46.0 °F35.1 °F66 %30.02 in5.0 miWNW (290°)4.6 mphHaze
7:54 AM48.0 °F36.0 °F63 %30.02 in4.0 miCalmHaze
8:54 AM51.1 °F37.0 °F59 %30.04 in2.5 miCalmHaze
9:02 AM51.8 °F37.4 °F58 %30.04 in3.0 miCalmHaze
9:54 AM55.9 °F37.9 °F51 %30.06 in4.0 miVariable4.6 mphHaze
10:54 AM55.0 °F39.9 °F57 %30.07 in3.0 miCalmHaze
11:54 AM59.0 °F39.0 °F48 %30.04 in5.0 miWNW (290°)4.6 mphHaze
12:54 PM64.4 °F39.2 °F40 %30.02 in7.0 miCalmClear
1:54 PM62.1 °F42.1 °F48 %30.01 in5.0 miCalmHaze
2:54 PM61.0 °F42.1 °F50 %30.02 in4.0 miWest (260°)4.6 mphHaze
3:54 PM61.0 °F41.0 °F48 %29.99 in6.0 miNorth (350°)8.1 mphHaze
4:44 PM57.2 °F42.8 °F59 %30.00 in2.5 miSouth (180°)8.1 mphHaze
4:54 PM55.9 °F43.0 °F62 %30.00 in2.5 miSSE (160°)4.6 mphHaze
5:21 PM55.4 °F42.8 °F63 %30.01 in3.0 miCalmHaze
5:54 PM55.0 °F43.0 °F64 %30.04 in4.0 miSSE (160°)3.5 mphHaze
6:54 PM55.9 °F41.0 °F57 %30.03 in4.0 miENE (60°)5.8 mphHaze
7:54 PM57.2 °F39.2 °F51 %30.03 in5.0 miCalmHaze
8:54 PM57.9 °F39.0 °F49 %30.03 in5.0 miSW (230°)3.5 mphHaze
9:54 PM55.9 °F43.0 °F62 %30.06 in5.0 miCalm0.00 inRainLight Rain
10:54 PM59.0 °F44.1 °F58 %30.05 in8.0 miEast (80°)5.8 mph0.01 inRainLight Rain
11:54 PM61.0 °F44.1 °F54 %30.02 in10.0 miEast (90°)5.8 mph0.00 inRainLight Rain
Hourly data recorded from KBFL, located miles away from Taft, California







STORIES FROM OUR PARTNERS